Lid_Strength_Index
12 11 13 15 15 15 16 16 16 15 15 15 15 15 13 11 12 12 12 11 11 11 9 9 9 9 9 9 9 9 9 9 9 9 9 9 9 8 8 7 7 7 7 6
12 14 15 14 14 15 15 17 16 15 15 15 15 16 13 13 13 12 11 11 11 10 10 10 9 9 9 9 9 9 9 9 9 9 9 9 9 8 8 8 8 7 7 7
13 14 14 14 15 16 16 16 17 17 15 16 16 14 14 13 12 12 11 11 11 10 10 10 10 9 8 9 8 9 9 9 9 9 9 9 8 8 9 9 9 8 8 8
14 14 14 15 16 15 16 15 16 17 16 17 16 18 14 14 13 12 11 11 10 10 10 9 9 9 8 8 8 9 9 9 10 9 9 10 10 11 10 10 9 9 9 9
14 15 15 16 15 15 16 15 16 18 18 19 18 18 14 14 14 13 11 11 10 10 10 9 9 9 9 9 9 9 9 10 10 9 9 10 10 10 10 11 11 10 9 9
15 13 14 14 14 15 15 17 18 18 18 19 22 19 15 14 14 13 11 11 11 10 10 9 9 9 9 8 9 9 10 10 10 9 9 10 11 11 12 12 12 11 10 10
16 15 14 14 15 14 16 16 17 18 18 18 24 21 15 13 13 12 11 11 11 11 10 10 10 10 9 9 9 9 11 11 10 10 10 11 11 12 13 13 12 11 10 9
16 17 16 14 15 16 17 17 17 21 20 18 24 20 14 13 13 12 12 12 12 11 10 10 10 10 10 10 10 11 12 12 10 10 11 11 12 13 13 12 12 10 9 9
17 17 15 14 14 15 17 17 18 21 27 21 17 17 14 13 14 13 13 12 11 11 10 11 11 11 11 11 11 12 13 11 11 11 12 12 12 12 11 11 10 10 9 9
16 17 18 15 14 15 16 16 18 18 21 21 18 20 16 13 12 14 13 12 12 11 11 11 11 11 12 12 13 13 12 12 12 12 12 12 12 11 11 10 10 10 9 8
16 17 18 16 17 17 17 17 18 18 19 19 20 16 12 13 13 13 13 12 12 12 11 12 12 13 13 13 13 13 12 12 12 13 13 12 11 10 10 10 10 9 8 7
14 16 17 16 16 15 16 16 16 17 20 20 21 17 12 13 13 16 14 12 11 11 12 13 14 14 13 14 14 14 12 12 13 13 12 12 11 10 10 10 9 8 8 7
14 16 17 17 17 16 17 16 16 18 18 20 19 16 13 15 15 13 15 12 11 11 12 13 14 14 14 15 15 14 13 13 14 13 12 12 11 11 10 9 9 8 8 7
11 15 15 16 14 15 17 16 16 16 18 16 17 15 12 11 12 11 10 10 10 11 13 14 15 15 15 16 16 16 15 15 14 13 13 12 12 11 11 9 9 8 8 8
12 16 16 15 15 17 16 16 16 18 17 17 15 15 13 11 11 11 11 10 11 11 11 13 14 14 16 17 17 17 16 17 15 14 14 13 12 11 10 10 9 9 8 8
12 15 19 19 14 15 18 16 16 16 16 16 16 16 12 11 11 13 12 12 12 11 11 12 14 15 17 16 17 18 18 18 16 15 15 14 13 12 12 11 10 10 9 9
14 16 19 17 20 20 20 18 15 15 15 15 18 14 10 13 12 11 12 12 12 11 11 12 13 15 15 17 17 19 18 18 17 15 15 14 13 13 13 12 11 11 11 10
14 17 16 17 20 21 14 14 14 14 15 15 14 14 13 12 11 11 11 12 12 11 11 12 14 16 17 18 20 20 19 18 16 15 15 14 14 14 13 12 12 11 11 11
12 14 16 18 18 16 14 12 16 16 13 13 14 12 11 11 13 11 9 11 11 11 12 14 14 17 18 20 20 20 18 17 16 15 15 14 14 14 13 13 12 12 11 11
15 13 15 20 20 20 14 15 14 14 16 10 12 11 11 13 13 10 9 11 11 11 12 13 14 16 16 15 16 16 16 16 14 15 15 14 13 14 14 13 12 12 11 12
18 17 17 16 18 16 13 14 14 16 13 12 11 10 12 13 10 8 11 10 10 11 11 13 14 15 15 15 16 16 15 15 14 14 14 14 14 13 13 13 13 13 13 13
18 18 18 16 19 20 14 14 15 11 11 12 12 11 11 11 10 10 10 10 10 10 11 13 14 15 16 15 17 16 16 14 15 14 14 14 14 13 13 14 13 14 14 14
17 14 15 15 15 12 13 11 11 10 10 11 11 10 11 11 11 10 10 9 10 10 12 13 14 15 16 16 17 17 16 16 16 15 16 15 15 14 14 14 14 14 14 15
17 15 15 14 12 14 13 12 11 11 11 10 10 10 11 11 11 11 11 11 10 10 12 14 15 16 16 16 17 16 17 17 17 16 16 16 15 15 15 14 14 14 14 14
12 15 14 14 12 13 12 11 10 10 10 11 10 11 10 10 11 11 11 10 10 10 12 15 16 16 16 16 17 17 18 18 16 16 16 15 15 15 14 14 14 14 14 13
11 12 14 14 10 10 10 8 9 10 10 9 10 10 11 11 11 10 11 10 10 11 12 16 16 16 15 16 17 18 18 18 16 16 16 15 15 15 14 14 13 12 12 12